Lapse_Rate
1.9 7.5 7.1 8.7 6.5 6.5 6.5 6.5 6.5 6.5 6.5 7.3 7.5 7.0 6.6 7.1 6.5 6.5 9.0 9.2 9.3 8.6 6.0 5.9 5.0 5.3 5.3 5.4 5.4 5.4 5.5 5.6 5.5 5.6 5.6 5.8 5.9 6.2 5.9 6.1 6.5 6.6 6.3 6.5 6.8 6.9 6.6 6.6 6.5
4.4 8.0 9.1 7.6 6.5 6.5 6.5 6.5 6.5 6.5 6.9 7.6 7.6 7.4 7.0 6.5 8.1 8.3 8.6 9.1 9.6 8.8 7.9 6.3 4.9 5.1 5.1 5.0 5.0 5.1 5.4 5.5 5.5 5.6 5.8 5.9 6.1 6.2 6.2 6.4 6.6 6.6 6.2 6.6 6.8 6.8 6.5 6.7 6.7
3.7 7.4 7.5 6.5 6.5 6.5 6.5 6.5 6.5 6.8 7.5 7.3 7.1 7.9 7.5 7.1 8.3 8.6 9.3 9.2 9.7 9.7 9.3 5.0 4.7 4.8 4.6 4.6 4.9 5.3 5.4 5.4 5.5 5.8 6.0 6.0 6.1 6.1 6.4 6.5 6.6 6.7 6.1 6.7 6.6 6.7 6.6 6.6 6.4
8.8 8.4 7.8 6.5 6.5 6.5 6.5 6.5 6.6 6.6 7.3 7.7 7.5 6.5 8.0 8.7 8.5 9.2 9.6 9.6 9.5 9.5 6.9 4.7 4.5 4.4 4.5 4.8 5.0 5.1 5.2 5.3 5.6 5.8 5.9 5.9 6.1 6.5 7.3 6.5 6.5 6.3 6.6 6.8 6.6 6.8 6.8 6.7 6.5
9.0 6.4 6.5 6.5 6.5 6.5 6.5 6.8 7.0 6.5 6.9 7.2 7.5 6.7 7.3 8.6 9.3 9.4 9.4 9.7 8.8 7.5 5.6 4.9 4.5 4.5 4.7 4.6 4.8 5.0 5.1 5.1 5.4 5.5 5.7 6.0 6.4 6.9 6.5 6.4 6.4 6.4 6.5 6.6 6.5 6.6 6.8 6.6 6.5
5.8 6.5 6.5 6.5 6.5 6.5 6.5 7.1 7.1 6.8 7.0 7.2 7.1 7.1 7.4 8.9 9.0 9.3 9.5 9.4 7.3 7.0 6.4 5.2 4.5 4.7 5.0 5.0 4.9 4.8 5.1 5.2 5.4 5.7 5.9 6.3 6.4 6.3 6.3 6.2 6.4 6.4 6.3 6.3 5.9 6.2 6.7 6.4 6.0
6.3 6.5 6.5 6.5 6.5 6.5 6.5 7.6 6.7 6.7 6.9 6.9 7.8 6.5 7.7 8.4 9.1 9.3 9.3 9.1 6.9 7.6 6.3 5.6 5.8 5.3 5.2 5.4 5.5 5.2 5.3 5.6 5.7 5.8 5.9 6.1 6.2 6.5 6.3 6.1 6.4 6.4 6.3 6.0 6.1 6.3 6.2 6.3 5.8
7.6 6.4 6.5 6.5 6.5 6.5 6.7 7.1 7.4 7.1 6.8 8.2 8.1 6.6 6.8 8.4 9.2 9.3 9.2 8.4 7.8 8.8 7.6 7.1 6.8 6.0 6.0 5.4 5.6 5.7 5.5 5.6 5.8 5.9 5.9 5.7 6.0 6.0 6.0 5.9 6.2 6.3 6.0 5.8 5.9 6.1 6.4 6.2 5.8
8.3 6.5 6.5 6.5 6.5 6.5 7.0 6.6 7.6 8.1 7.4 7.7 8.0 7.9 8.3 9.0 9.2 9.0 8.2 8.9 7.4 8.2 8.5 7.6 7.9 7.4 7.1 6.4 5.7 5.6 5.6 5.8 5.8 5.7 5.9 5.7 6.2 6.8 7.3 7.1 6.4 6.4 6.2 6.0 5.9 5.9 6.0 5.9 5.8
6.8 6.5 6.5 6.5 6.5 6.5 6.8 6.8 7.1 5.8 6.6 7.1 7.6 8.3 8.7 8.9 8.8 8.4 8.4 8.5 8.3 8.8 9.0 8.8 8.2 8.1 8.3 7.8 5.5 6.1 5.7 5.9 6.0 6.7 5.8 5.4 8.3 8.2 8.2 7.2 6.5 6.3 6.0 5.9 6.0 6.2 6.2 5.9 5.8
6.6 6.5 6.5 6.7 7.1 7.2 6.8 6.8 7.4 6.9 6.5 6.2 7.1 7.8 8.4 8.5 8.4 8.4 8.5 8.5 7.2 6.8 6.8 8.1 8.8 8.4 8.1 8.1 5.7 6.4 6.9 7.1 7.3 7.9 6.4 7.3 8.4 7.6 8.0 7.1 6.4 6.2 6.4 6.5 6.0 5.9 6.3 6.5 6.6
6.5 6.8 6.9 7.0 7.3 7.1 6.5 7.3 6.8 7.0 7.1 8.0 8.0 8.2 8.3 8.3 8.3 8.3 8.3 8.5 7.8 7.4 7.5 6.7 7.0 7.3 7.0 8.0 7.2 7.1 6.4 6.8 8.0 7.1 6.7 6.2 6.7 7.8 7.4 7.3 7.9 7.9 7.6 8.1 7.0 7.0 7.6 8.3 8.1
6.5 6.5 7.1 7.3 7.2 7.2 7.3 6.8 6.7 6.9 7.9 8.2 8.3 8.3 8.2 8.2 8.3 8.6 8.7 8.8 8.7 6.6 7.1 7.1 5.7 6.8 6.4 6.6 6.8 7.4 7.3 7.6 7.8 7.3 6.6 6.9 6.8 7.6 7.8 6.8 7.2 8.1 8.5 7.6 6.3 4.7 5.5 4.8 7.8
7.0 6.9 6.9 7.2 7.0 7.1 6.7 6.8 7.0 7.2 7.9 7.9 7.9 7.9 8.2 8.2 8.3 8.5 8.6 8.5 8.4 8.4 8.5 8.5 8.2 8.1 7.4 6.8 7.5 6.7 8.3 7.3 5.9 5.8 6.9 7.2 7.4 6.9 6.9 5.5 5.1 5.7 6.9 7.6 4.2 2.1 3.8 5.9 8.0
7.1 6.5 6.5 6.7 6.9 6.6 7.1 6.5 6.5 7.4 7.8 7.5 7.7 7.9 8.0 8.1 8.4 8.3 8.5 8.3 8.6 8.4 8.6 8.2 8.4 8.7 7.9 7.3 6.2 6.9 8.8 8.6 6.7 7.6 7.7 6.8 6.8 7.1 6.3 6.0 4.6 5.3 5.9 7.0 3.5 3.1 1.5 2.7 5.4
6.5 6.5 6.5 6.5 6.6 6.8 6.8 6.5 6.4 7.5 7.4 7.2 7.5 7.8 7.8 8.0 8.3 8.5 8.5 8.4 8.7 8.1 8.0 8.1 9.3 8.5 7.4 6.7 7.0 8.0 8.5 8.7 7.9 8.0 8.2 8.5 8.3 7.7 7.2 6.7 7.3 7.4 4.9 5.3 3.8 2.8 1.9 2.7 5.7
6.5 6.5 6.5 6.5 6.6 6.5 6.5 6.5 6.5 7.5 7.3 7.1 7.3 7.5 7.7 7.9 8.1 8.3 8.7 8.9 8.5 8.3 7.6 8.1 8.4 3.5 4.7 6.5 6.5 7.2 7.4 8.3 8.4 8.2 8.1 7.6 7.9 7.6 7.8 7.4 7.5 8.8 7.5 7.4 7.4 4.8 4.3 5.5 5.4
6.5 6.5 6.5 6.5 6.5 6.5 6.5 6.5 6.5 7.1 7.1 7.1 7.3 7.4 7.5 7.7 8.0 8.5 8.7 8.9 8.8 8.3 7.8 8.1 1.5 0.7 1.4 2.5 2.6 3.2 6.9 8.3 7.3 6.1 7.7 7.4 7.1 7.6 6.8 6.6 6.3 7.0 6.5 7.2 6.7 5.7 6.7 6.0 4.7
6.5 6.5 6.5 6.5 6.5 6.5 6.5 6.5 6.5 6.8 7.0 6.9 7.1 7.2 7.4 7.7 8.3 8.5 8.8 8.9 8.9 8.8 6.9 3.9 2.6 1.2 1.4 2.1 4.0 1.9 4.7 6.3 6.7 7.7 8.6 7.8 7.6 7.6 6.7 5.7 5.1 5.1 5.9 5.2 5.3 5.1 6.2 4.4 5.2
6.5 6.5 6.5 6.5 6.5 6.5 6.5 6.5 6.5 6.5 6.6 6.9 7.1 7.2 7.5 7.8 8.0 8.2 8.3 8.7 8.8 8.7 5.2 3.8 1.8 1.2 1.9 2.0 3.0 2.8 4.9 6.5 6.9 7.0 7.5 7.6 7.4 7.2 6.9 6.3 5.4 5.3 5.2 5.6 5.5 4.8 5.7 5.5 5.4
6.5 6.5 6.5 6.5 6.5 6.5 6.5 6.5 6.5 6.5 6.8 7.1 7.3 7.5 7.6 7.7 7.7 8.0 8.2 8.4 8.8 8.7 8.7 6.8 4.4 3.6 3.1 3.4 4.4 4.6 6.1 6.3 7.0 7.2 7.3 7.9 8.9 8.5 8.0 7.4 6.9 6.2 5.6 4.9 5.2 5.4 5.5 4.2 3.7
6.5 6.5 6.5 6.5 6.5 6.5 6.5 6.5 6.5 6.5 6.5 6.5 6.9 7.2 7.5 7.7 7.7 8.0 8.2 8.3 8.6 8.8 8.0 7.1 6.9 6.8 5.7 5.0 4.5 6.1 5.8 6.6 7.2 7.7 6.7 7.3 8.3 7.7 7.7 7.2 6.8 6.4 5.8 5.7 5.4 5.5 5.5 5.1 4.1
6.5 6.5 6.5 6.5 6.5 6.5 6.5 6.5 6.5 6.5 6.5 6.5 6.7 7.1 7.5 7.8 7.9 8.0 8.3 8.3 8.7 8.9 8.8 8.9 8.7 8.1 7.6 6.9 6.5 6.3 6.4 7.3 7.3 7.8 8.5 7.4 7.5 8.4 7.8 7.0 6.5 6.1 5.7 5.6 5.3 5.3 5.6 5.4 4.8
6.5 6.5 6.5 6.5 6.5 6.5 6.5 6.5 6.5 6.5 6.5 6.5 6.7 7.1 7.4 7.7 7.9 8.1 8.3 8.4 8.6 8.7 9.0 9.0 7.8 7.7 7.9 8.0 6.7 6.5 6.4 6.3 6.7 7.0 8.0 7.4 7.5 7.1 6.1 6.6 6.0 6.2 5.9 5.7 5.4 5.7 5.6 5.3 6.3
6.5 6.5 6.5 6.5 6.5 6.5 6.5 6.5 6.5 6.5 6.5 6.5 6.5 7.0 7.5 7.7 7.9 8.0 7.6 8.3 8.4 8.4 8.7 8.9 8.0 7.6 8.1 8.4 7.2 6.7 6.4 7.7 7.6 7.6 8.1 7.7 7.9 7.5 6.5 5.8 5.8 5.8 6.2 6.2 5.8 5.5 5.1 5.0 5.5
6.5 6.5 6.5 6.5 6.5 6.5 6.5 6.5 6.5 6.5 6.8 7.0 7.2 7.3 7.6 7.7 7.9 8.0 8.1 8.4 8.5 8.5 8.7 8.6 7.1 7.4 7.8 8.5 7.9 7.3 8.6 8.6 7.9 7.5 7.7 7.9 7.3 7.5 5.3 5.3 6.2 6.2 7.7 7.6 6.6 5.7 5.2 5.4 5.2
6.5 6.5 6.5 6.5 6.5 6.5 6.5 6.5 6.5 6.5 6.5 6.7 6.9 7.2 7.2 7.5 7.8 8.0 8.3 8.4 8.5 8.2 8.4 8.6 7.2 7.1 8.0 8.4 8.0 8.2 7.8 7.2 7.3 7.6 8.0 7.3 5.1 5.7 5.1 6.3 6.8 6.0 5.6 5.2 4.6 4.8 5.6 5.6 5.5
6.5 6.5 6.5 6.5 6.5 6.5 6.5 6.5 6.5 6.5 6.5 6.5 6.5 6.8 7.1 7.6 7.8 8.1 8.2 8.3 8.6 8.6 8.5 8.7 7.2 7.0 8.0 8.5 8.3 8.4 8.3 8.1 7.7 8.3 7.2 5.9 5.0 6.0 5.6 6.7 6.5 6.3 6.3 5.9 4.9 4.4 4.2 5.8 5.2
6.5 6.5 6.5 6.5 6.5 6.5 6.5 6.5 6.5 6.5 6.5 6.5 6.6 7.0 7.2 7.5 7.8 7.9 8.2 8.5 8.7 8.7 8.7 7.2 6.7 7.3 8.1 8.6 8.6 8.5 8.7 7.9 8.4 8.7 7.2 5.8 5.7 6.8 6.5 6.7 6.6 6.6 6.5 6.6 6.1 6.4 6.0 5.9 5.7
6.5 6.5 6.5 6.5 6.5 6.5 6.5 6.5 6.5 6.5 6.5 6.6 6.8 7.2 7.5 7.7 7.9 8.1 8.2 8.4 8.5 8.6 8.7 6.4 7.0 7.7 8.7 8.7 8.9 8.9 7.7 7.8 8.2 8.3 7.7 7.5 6.7 7.5 7.2 7.1 5.9 5.6 6.3 5.3 4.6 4.1 4.1 5.4 5.7
Wind_Speed
17 14 11 10 5 9 16 17 17 19 14 12 10 15 21 13 7 10 13 22 23 20 21 19 17 16 16 16 17 17 17 17 15 15 14 13 11 11 11 12 9 9 9 6 5 6 7 8 7
13 18 8 6 1 12 13 17 16 12 6 17 21 20 21 19 17 18 13 22 22 20 21 19 17 17 17 17 17 17 17 16 16 15 14 12 11 11 11 9 8 8 9 7 6 6 8 8 8
14 16 7 4 11 13 13 14 13 12 13 17 21 19 19 15 17 17 14 23 21 17 23 20 18 17 17 16 17 17 16 16 15 13 13 12 11 11 9 8 7 6 8 5 5 7 7 8 8
6 8 6 7 17 17 16 11 16 16 13 15 17 13 16 14 20 20 15 22 18 19 22 19 18 16 16 15 15 14 15 14 13 12 11 10 10 9 8 8 6 5 4 4 5 5 6 7 8
6 7 7 13 19 17 16 6 19 14 13 18 18 16 16 17 19 18 14 13 20 19 23 18 16 15 15 15 14 13 13 13 11 11 10 10 9 8 6 7 6 6 5 5 5 5 5 6 8
7 3 5 8 16 14 14 7 16 14 10 14 20 17 15 15 16 14 14 11 18 19 20 18 15 14 13 13 13 13 11 11 10 9 9 8 8 8 7 7 7 6 6 5 5 3 7 8 12
14 8 7 15 15 12 5 15 15 10 16 8 20 17 11 17 15 13 10 11 17 16 16 17 14 13 13 11 10 13 12 11 9 8 8 8 9 9 7 6 7 7 7 7 7 5 7 10 15
8 10 3 8 14 11 6 12 5 15 13 7 10 9 16 16 16 15 10 6 15 16 16 14 16 14 13 13 11 11 12 11 10 8 8 9 8 11 11 10 8 7 6 6 8 8 7 10 15
16 7 4 10 15 12 8 12 9 13 8 11 10 18 21 19 17 16 9 8 11 9 12 13 14 15 15 14 13 12 12 11 11 11 11 11 11 15 15 13 17 11 9 8 8 9 10 11 14
17 6 7 13 10 6 11 5 6 11 20 8 17 19 20 18 16 16 12 9 7 10 9 12 11 11 15 14 16 14 14 13 14 15 15 13 11 15 12 17 18 15 12 11 10 9 12 13 11
13 7 10 12 8 7 11 9 0 22 12 24 16 18 19 17 15 13 15 15 13 8 7 6 11 12 10 8 14 11 11 10 11 11 13 11 7 13 13 14 12 13 14 12 12 11 11 13 11
5 4 8 9 4 4 9 11 9 6 14 16 18 18 18 16 14 14 12 13 18 15 11 13 9 10 9 10 9 10 9 11 9 10 10 4 6 4 4 1 10 6 10 6 9 11 14 14 14
9 4 1 2 1 3 5 8 4 7 16 15 18 17 16 15 15 12 11 11 11 15 13 13 9 9 6 6 8 12 7 10 12 14 14 11 6 3 3 3 7 3 2 3 7 2 8 9 15
9 5 9 6 6 5 1 15 7 10 12 13 16 17 16 15 14 12 10 10 12 11 9 11 11 8 6 6 5 4 8 7 7 10 13 14 9 6 3 2 3 5 5 4 7 8 1 13 17
5 10 12 13 5 5 10 14 15 9 12 11 13 15 15 13 14 11 11 9 9 10 11 11 9 8 5 3 4 6 6 8 7 10 12 16 13 8 8 5 4 5 8 5 3 7 8 6 5
11 13 14 14 5 3 6 15 37 10 14 11 12 12 14 13 13 13 11 9 7 10 9 9 10 12 11 7 5 5 9 6 7 3 8 12 9 9 7 5 5 12 12 9 5 3 3 4 5
14 12 14 9 7 7 5 10 9 5 13 12 8 9 13 12 11 10 13 11 11 7 9 8 4 17 13 7 4 6 8 3 1 4 3 11 10 9 9 4 6 10 5 6 6 7 9 5 1
10 11 8 1 3 8 8 8 11 8 8 14 11 9 10 11 12 10 8 10 9 9 10 9 14 15 14 11 15 9 4 2 1 5 6 6 7 8 7 6 6 10 4 5 6 7 5 4 8
10 12 12 6 2 2 11 6 6 11 7 12 14 10 10 11 11 11 8 5 6 6 7 7 12 13 9 5 9 6 6 3 4 4 4 3 4 7 5 5 6 5 6 8 7 6 3 7 12
10 10 10 9 5 3 11 11 8 5 8 5 14 16 13 13 12 11 8 6 3 5 9 9 12 11 10 8 4 7 11 2 2 3 3 4 5 7 6 5 8 8 8 7 7 8 5 4 3
11 10 11 7 4 8 13 14 16 13 11 8 4 17 16 14 14 10 9 6 4 6 3 7 11 13 12 11 7 9 6 2 2 2 3 1 2 4 5 5 5 5 5 7 7 6 5 4 4
12 11 5 10 9 11 5 10 6 12 11 12 10 7 16 12 15 12 10 8 6 6 8 5 7 9 10 10 7 7 3 3 1 2 3 2 5 4 5 5 7 5 4 5 7 5 5 4 5
11 6 7 9 11 13 16 8 8 6 1 15 13 11 7 15 15 14 12 10 8 8 7 7 4 4 5 5 2 1 2 2 5 3 3 4 3 1 7 4 5 5 4 6 6 7 6 5 4
9 5 10 11 12 12 15 10 6 8 12 1 11 6 10 15 14 13 11 9 8 10 8 8 7 5 3 3 4 4 6 5 6 5 3 4 4 4 7 8 6 5 4 6 6 5 6 7 6
9 9 7 9 11 3 17 12 7 8 12 9 7 11 8 15 14 12 13 10 8 9 8 9 8 6 5 4 3 5 4 2 4 5 4 6 6 6 7 9 7 5 4 4 4 5 6 6 6
10 12 9 15 13 4 12 6 22 8 10 13 6 4 12 15 14 14 15 11 10 10 10 10 9 8 5 5 5 3 2 2 6 5 5 6 6 7 9 9 8 8 5 2 1 2 4 6 6
11 12 14 13 16 14 10 8 12 16 5 13 12 10 12 13 14 14 14 13 11 9 10 11 11 9 6 6 5 3 3 6 5 4 5 6 8 6 6 8 9 8 7 5 5 3 4 3 4
11 14 7 9 14 14 13 7 2 8 16 13 10 9 11 12 14 14 13 13 12 10 9 9 12 9 8 7 5 4 5 6 5 4 7 9 5 6 7 9 10 10 10 8 5 4 6 4 2
10 11 11 13 13 12 11 1 12 13 10 11 12 11 11 11 13 11 12 12 14 13 10 11 10 9 8 7 6 5 6 6 4 3 8 9 4 6 8 9 11 11 12 11 9 8 9 9 7
14 10 10 9 10 11 11 4 8 13 16 6 15 13 11 12 13 12 12 12 12 10 11 11 10 9 9 7 6 5 9 6 4 6 8 6 5 5 7 9 10 9 9 10 11 11 12 12 11
Wind_Direction
292 270 238 280 241 75 69 61 47 60 58 70 54 55 66 69 92 128 128 111 114 123 127 123 112 106 109 117 120 124 127 130 128 125 129 130 124 121 115 123 122 121 110 105 102 117 142 141 130
308 304 268 279 199 83 74 68 64 53 29 73 38 49 67 69 91 108 106 113 118 127 135 125 113 111 109 116 126 128 130 132 132 130 133 132 128 127 126 123 122 116 109 110 105 102 136 129 136
273 265 287 276 71 85 92 96 88 78 46 73 76 54 74 87 113 107 126 111 119 141 125 126 119 119 120 119 123 126 129 133 134 135 135 134 133 131 137 135 120 126 105 114 119 122 128 129 136
294 292 238 88 91 86 85 53 105 100 88 60 85 80 64 41 111 120 134 120 138 130 120 124 124 123 119 116 117 124 127 128 131 133 136 138 141 145 147 143 134 107 128 125 105 137 138 136 146
335 360 317 107 93 96 97 105 94 91 67 73 85 91 82 82 103 124 125 134 113 112 126 126 123 123 126 128 126 125 127 131 137 142 147 147 152 147 145 133 131 129 124 140 113 118 123 130 149
51 99 293 104 109 109 129 74 103 96 115 124 102 90 94 115 122 131 127 139 119 125 126 130 122 123 125 128 132 133 134 137 143 152 154 159 145 148 154 147 140 135 138 141 134 115 133 134 140
141 157 227 106 93 73 84 159 98 96 84 78 102 108 130 127 127 127 133 106 121 126 126 126 134 134 137 138 147 144 145 147 153 156 154 153 161 161 164 158 154 151 159 164 178 168 138 146 162
171 181 220 102 110 94 132 85 61 99 89 84 147 129 141 127 135 131 119 132 132 137 139 140 145 154 155 153 164 159 156 160 165 172 182 182 184 175 183 182 180 171 170 174 183 175 165 162 175
261 332 341 63 66 110 67 126 92 83 116 82 58 115 125 141 140 130 117 122 96 110 136 143 151 162 167 161 168 173 169 172 178 185 195 208 214 195 196 205 165 175 183 188 193 180 171 175 184
62 351 304 49 35 36 111 41 131 129 42 95 102 108 130 145 150 136 153 170 150 145 151 146 157 162 167 175 159 185 181 185 197 198 187 215 230 208 188 171 176 180 188 195 193 190 182 184 185
136 225 221 87 0 9 355 143 358 115 117 231 135 137 145 151 147 160 171 168 180 162 161 179 169 160 179 181 167 192 188 207 212 213 189 233 265 197 199 169 180 187 198 198 193 183 196 200 196
222 58 356 61 62 350 22 343 66 62 132 128 140 147 149 160 160 167 179 168 174 166 167 176 183 165 189 175 177 185 180 212 184 200 211 235 251 238 281 9 194 197 172 224 166 204 207 203 190
289 81 311 224 252 348 342 274 57 65 96 118 139 152 159 163 162 171 171 159 159 160 180 174 172 172 196 160 202 198 192 190 204 177 192 202 223 253 225 27 334 355 198 296 200 37 357 315 219
358 347 307 289 289 256 255 334 142 104 110 130 148 159 168 165 166 166 176 165 165 164 177 158 163 159 160 188 215 223 215 209 138 206 189 200 201 206 197 234 304 331 309 285 88 100 94 235 228
281 270 251 231 228 296 57 357 328 124 132 145 159 167 172 166 166 165 168 172 183 158 174 162 157 165 130 194 234 221 250 195 205 200 154 181 206 198 199 202 198 228 261 249 168 158 182 244 239
250 256 259 236 117 148 172 165 255 164 145 158 168 176 165 166 168 168 165 164 187 163 168 164 183 172 161 173 238 238 238 203 231 183 167 190 198 218 208 220 219 197 200 232 181 208 256 251 253
227 254 242 135 117 333 282 162 140 189 137 144 160 181 165 172 171 162 166 178 174 179 161 171 173 50 40 354 303 250 253 228 235 230 245 196 206 224 228 240 247 221 194 210 221 200 194 203 257
313 223 257 130 122 176 271 254 142 148 183 153 163 174 179 181 184 165 181 187 183 165 164 177 81 50 59 344 324 299 242 206 140 225 245 222 189 248 254 251 251 272 258 233 249 254 202 206 199
339 321 332 11 147 47 288 313 281 148 172 169 151 163 192 193 187 156 177 196 176 199 182 83 106 115 125 186 277 326 255 188 236 222 223 116 223 256 262 273 271 270 251 243 258 260 259 316 227
298 285 283 270 128 218 279 278 268 201 154 194 166 163 186 185 188 170 168 174 191 251 115 111 119 139 164 167 181 257 271 233 219 155 199 230 260 263 251 261 272 269 268 254 250 257 206 203 328
265 270 273 305 313 231 242 257 244 231 153 185 211 163 171 190 181 162 170 184 198 221 210 115 144 161 176 192 171 217 238 290 262 252 255 153 246 292 299 298 279 264 265 264 266 255 194 180 215
265 307 232 300 288 275 329 270 214 191 186 172 173 175 167 180 156 162 173 175 193 172 122 125 173 173 187 189 175 225 244 148 112 242 83 315 230 244 255 285 297 279 263 261 256 260 227 163 213
263 8 305 274 271 273 269 253 79 170 273 178 169 152 168 155 157 165 175 160 175 157 145 143 125 118 138 148 162 16 315 124 99 21 316 250 189 351 2 343 298 285 265 259 254 247 231 203 195
276 296 266 259 256 258 259 249 161 129 157 104 113 107 151 142 153 154 150 140 178 155 156 141 134 95 105 116 70 64 49 55 32 350 345 330 44 68 19 4 334 304 267 258 255 254 240 219 211
236 253 256 239 236 333 358 325 318 104 122 110 97 131 143 142 152 158 138 158 156 163 158 143 129 146 146 138 119 92 75 37 131 357 19 331 18 22 5 351 340 315 277 269 239 236 239 222 206
217 249 273 300 297 112 193 218 263 115 123 119 135 116 139 149 157 167 153 162 170 158 158 144 141 130 190 131 109 103 60 321 57 58 334 40 23 20 9 337 342 338 327 65 224 261 261 242 197
255 234 245 280 282 279 244 197 41 12 345 131 132 138 146 154 160 161 161 162 171 166 172 159 149 149 189 136 124 134 76 60 62 30 14 36 39 8 351 348 6 6 34 37 26 343 282 197 193
247 279 253 230 262 272 276 98 103 93 290 122 131 147 141 156 161 164 157 151 161 168 178 190 142 158 170 140 158 153 125 81 70 343 79 62 23 7 11 21 22 25 26 36 38 32 1 284 164
205 235 257 277 289 302 294 170 153 168 207 166 157 151 153 161 151 145 146 149 165 163 173 134 148 169 150 162 167 155 124 95 72 49 75 70 20 22 22 37 31 37 28 24 26 37 43 47 46
245 288 203 241 257 250 276 68 165 202 230 274 139 146 157 152 149 154 140 151 152 163 164 143 165 163 154 137 141 137 100 89 73 68 69 88 61 54 40 56 46 41 44 44 39 39 31 34 41